Regional Weather Roundup
Issued by NWS

Home | Current Version | Previous Version | Text Only | Print | Product List | Glossary Off
Versions: 1 2 3 4 5 6 7 8 9 10 11 12 13 14 15 16 17 18 19 20 21 22 23 24 25 26 27 28 29 30 31 32 33 34 35 36 37 38 39 40 41 42 43 44 45 46 47 48 49 50

000
ASUS43 KLMK 181702
RWRKY
KENTUCKY REGIONAL WEATHER ROUNDUP
NATIONAL WEATHER SERVICE LOUISVILLE KY
1200 PM EST THU DEC 18 2014

NOTE "FAIR" INDICATES FEW OR NO CLOUDS BELOW 12,000 FEET
WITH NO SIGNIFICANT WEATHER AND/OR OBSTRUCTIONS TO VISIBILITY.

KYZ001>023-026-027-061>063-070>075-181800-
WESTERN AND SOUTH CENTRAL KENTUCKY

CITY           SKY/WX    TMP DP  RH WIND       PRES   REMARKS
PADUCAH        CLOUDY    34  31  88 E6        30.28F FOG     WCI  29
HENDERSON      CLOUDY    32  25  74 CALM      30.29F
OWENSBORO      CLOUDY    32  26  78 N6        30.30F WCI  26
HOPKINSVILLE   CLOUDY    33  29  87 N7        30.28R WCI  26
BOWLING GREEN  CLOUDY    35  26  69 CALM      30.26F
GLASGOW        NOT AVBL
$$

KYZ024-025-028>034-038-045-046-053-181800-
NORTH CENTRAL KENTUCKY

CITY           SKY/WX    TMP DP  RH WIND       PRES   REMARKS
LOUISVILLE/SDF CLOUDY    32  23  69 NW6       30.29R WCI  26
LOUISVILLE/LOU CLOUDY    31  23  72 NW5       30.29S WCI  26
FORT KNOX      CLOUDY    31  24  75 NW5       30.26R WCI  26
$$

KYZ035>037-039>044-047>052-055>060-089>105-181800-
NORTHEAST KENTUCKY

CITY           SKY/WX    TMP DP  RH WIND       PRES   REMARKS
LEXINGTON      CLOUDY    31  23  72 E3        30.23F
COVINGTON      CLOUDY    28  18  66 N6        30.27R WCI  22
FRANKFORT      CLOUDY    30  22  72 N5        30.24F WCI  25
$$

KYZ054-064>069-076>088-106>120-181800-
SOUTHEAST KENTUCKY

CITY           SKY/WX    TMP DP  RH WIND       PRES   REMARKS
JACKSON        PTSUNNY   32  23  69 CALM      30.20F
LONDON         CLOUDY    35  26  69 CALM      30.20F
SOMERSET       NOT AVBL
MIDDLESBORO    PTSUNNY   38  29  68 CALM      30.20F
MONTICELLO     PTSUNNY   35  29  79 N3        30.25F
$$




USA.gov is the U.S. government's official web portal to all federal, state and local government web resources and services.